Location: Caltech
(34.1382°N, 118.1253°W)
Time: 16:40:20
(UTC-07:00)

Cosmos 1758 Rocket - Visible Passes

Search period start: 16 October 2017 00:00
Search period end: 26 October 2017 00:00
Orbit: 603 x 635 km, 82.5° (Epoch: 16 October)

Date Brightness Start Highest point End Pass type
(mag) Time Alt. Az. Time Alt. Az. Time Alt. Az.
16 Oct 5.7 04:36:15 10° SE 04:39:54 25° E 04:43:35 10° NE visible
16 Oct 4.8 06:14:14 10° SW 06:17:40 22° WNW 06:21:09 10° NNW visible
17 Oct 4.4 04:52:53 10° SSE 04:57:11 50° E 05:01:32 10° NNE visible
18 Oct 3.4 05:13:26 50° SSW 05:14:34 79° W 05:19:04 10° N visible
19 Oct 6.6 03:55:29 13° ENE 03:55:29 13° ENE 03:56:57 10° NE visible
19 Oct 4.2 05:32:45 36° NW 05:32:45 36° NW 05:36:15 10° N visible
20 Oct 6.2 04:14:18 17° NE 04:14:18 17° NE 04:15:35 10° NNE visible
20 Oct 5.4 05:51:33 16° NW 05:51:33 16° NW 05:52:57 10° NNW visible
21 Oct 6.1 04:32:47 14° NNE 04:32:47 14° NNE 04:33:28 10° NNE visible
